,,Stat5,,Stat1,,Stat2,,Stat3,,Stat4,,Wind1,,Wind1,
time,status,PA1M_AVG,status,PR1M_SUM,status,RH1M_AVG,status,SR1M_AVG,status,TA1M_AVG,status,W1dAve1m,status,W1sAve1m,
2003-02-11, 00:00:01,VALID,917.222,VALID,0,VALID,88.1896,VALID,-0.0169808,VALID,21.4276,VALID,94,VALID,1.28482,
2003-02-11, 00:01:00,VALID,917.215,VALID,0,VALID,88.1311,VALID,-0.0509425,VALID,21.4405,VALID,114,VALID,0.915848,
2003-02-11, 00:02:00,VALID,917.17,VALID,0,VALID,88.1959,VALID,-0.0339617,VALID,21.4502,VALID,109,VALID,0.681332,
2003-02-11, 00:03:00,VALID,917.182,VALID,0,VALID,88.3574,VALID,-0.0339617,VALID,21.4306,VALID,79,VALID,0.535045,
2003-02-11, 00:04:00,VALID,917.158,VALID,0,VALID,88.5978,VALID,-0.0339617,VALID,21.3953,VALID,78,VALID,0.645904,
2003-02-11, 00:05:00,VALID,917.13,VALID,0,VALID,89.1446,VALID,-0.0169808,VALID,21.3721,VALID,93,VALID,1.80124,
2003-02-11, 00:06:00,VALID,917.127,VALID,0,VALID,89.1929,VALID,0,VALID,21.3721,VALID,89,VALID,1.83817,
2003-02-11, 00:07:00,VALID,917.119,VALID,0,VALID,89.3175,VALID,0,VALID,21.385,VALID,76,VALID,1.63522,
2003-02-11, 00:08:00,VALID,917.119,VALID,0,VALID,89.4587,VALID,-0.0169808,VALID,21.3788,VALID,84,VALID,1.21114,
2003-02-11, 00:09:00,VALID,917.095,VALID,0,VALID,89.6252,VALID,-0.0339617,VALID,21.353,VALID,108,VALID,1.02461,
2003-02-11, 00:10:00,VALID,917.113,VALID,0,VALID,89.8211,VALID,-0.0169808,VALID,21.343,VALID,81,VALID,1.84248,
2003-02-11, 00:11:00,VALID,917.085,VALID,0,VALID,89.7588,VALID,-0.0509425,VALID,21.3306,VALID,117,VALID,1.73416,
2003-02-11, 00:12:00,VALID,917.092,VALID,0,VALID,89.6646,VALID,-0.0509425,VALID,21.3532,VALID,128,VALID,1.72595,
2003-02-11, 00:13:00,VALID,917.08,VALID,0,VALID,89.5248,VALID,-0.0679233,VALID,21.3726,VALID,121,VALID,1.44401,
2003-02-11, 00:14:00,VALID,917.088,VALID,0,VALID,89.4993,VALID,-0.0169808,VALID,21.3856,VALID,123,VALID,0.94391,
2003-02-11, 00:15:00,VALID,917.08,VALID,0,VALID,89.5845,VALID,-0.0169808,VALID,21.3721,VALID,121,VALID,1.07981,
2003-02-11, 00:16:00,VALID,917.081,VALID,0,VALID,89.6291,VALID,-0.0339617,VALID,21.3724,VALID,97,VALID,0.811914,
2003-02-11, 00:17:00,VALID,917.092,VALID,0,VALID,89.6519,VALID,-0.0169808,VALID,21.3624,VALID,124,VALID,0.797931,
2003-02-11, 00:18:00,VALID,917.083,VALID,0,VALID,89.7193,VALID,-0.0169808,VALID,21.3562,VALID,126,VALID,0.907072,
2003-02-11, 00:19:00,VALID,917.082,VALID,0,VALID,89.7867,VALID,-0.0509425,VALID,21.3368,VALID,112,VALID,1.13261,
2003-02-11, 00:20:00,VALID,917.063,VALID,0,VALID,89.8516,VALID,-0.0509425,VALID,21.3241,VALID,138,VALID,0.540402,
2003-02-11, 00:21:00,VALID,917.048,VALID,0,VALID,89.9558,VALID,-0.0169808,VALID,21.3144,VALID,132,VALID,0.838942,
2003-02-11, 00:22:00,VALID,917.029,VALID,0,VALID,90.0627,VALID,0,VALID,21.2751,VALID,158,VALID,0.709293,
2003-02-11, 00:23:00,VALID,917.042,VALID,0,VALID,90.228,VALID,-0.0169808,VALID,21.2463,VALID,128,VALID,0.95332,
2003-02-11, 00:24:00,VALID,916.999,VALID,0,VALID,90.3094,VALID,-0.0169808,VALID,21.2169,VALID,134,VALID,1.01668,
2003-02-11, 00:25:00,VALID,916.991,VALID,0,VALID,90.3475,VALID,-0.0509425,VALID,21.2174,VALID,113,VALID,1.22783,
2003-02-11, 00:26:00,VALID,916.983,VALID,0,VALID,90.4047,VALID,-0.0509425,VALID,21.2045,VALID,118,VALID,1.19346,
2003-02-11, 00:27:00,VALID,916.91,VALID,0,VALID,90.6107,VALID,-0.0339617,VALID,21.1977,VALID,126,VALID,1.52257,
2003-02-11, 00:28:00,VALID,916.914,VALID,0,VALID,90.5789,VALID,-0.0679233,VALID,21.208,VALID,118,VALID,1.04828,
2003-02-11, 00:29:00,VALID,916.888,VALID,0,VALID,90.57,VALID,-0.0849042,VALID,21.1942,VALID,118,VALID,0.972762,
2003-02-11, 00:30:00,VALID,916.854,VALID,0,VALID,90.5815,VALID,-0.0509425,VALID,21.188,VALID,116,VALID,1.37109,
2003-02-11, 00:31:00,VALID,916.83,VALID,0,VALID,90.6247,VALID,0,VALID,21.1711,VALID,130,VALID,1.26415,
2003-02-11, 00:32:00,VALID,916.796,VALID,0,VALID,90.6603,VALID,-0.0509425,VALID,21.1786,VALID,149,VALID,1.41201,
2003-02-11, 00:33:00,VALID,916.802,VALID,0,VALID,90.6654,VALID,-0.0509425,VALID,21.153,VALID,130,VALID,1.21217,
2003-02-11, 00:34:00,VALID,916.775,VALID,0,VALID,90.771,VALID,-0.0169808,VALID,21.1298,VALID,134,VALID,1.1433,
2003-02-11, 00:35:00,VALID,916.773,VALID,0,VALID,90.8447,VALID,-0.0169808,VALID,21.0978,VALID,139,VALID,1.51943,
2003-02-11, 00:36:00,VALID,916.756,VALID,0,VALID,90.8561,VALID,-0.0509425,VALID,21.0851,VALID,139,VALID,1.04132,
2003-02-11, 00:37:00,VALID,916.744,VALID,0,VALID,90.846,VALID,-0.0509425,VALID,21.0813,VALID,134,VALID,1.30898,
2003-02-11, 00:38:00,VALID,916.716,VALID,0,VALID,90.8638,VALID,-0.0169808,VALID,21.0811,VALID,140,VALID,1.15836,
2003-02-11, 00:39:00,VALID,916.72,VALID,0,VALID,90.879,VALID,-0.0339617,VALID,21.0816,VALID,146,VALID,1.46115,
2003-02-11, 00:40:00,VALID,916.699,VALID,0,VALID,90.762,VALID,-0.0339617,VALID,21.0784,VALID,144,VALID,1.57915,
2003-02-11, 00:41:00,VALID,916.677,VALID,0,VALID,90.6069,VALID,-0.0169808,VALID,21.0945,VALID,135,VALID,1.34505,
2003-02-11, 00:42:00,VALID,916.658,VALID,0,VALID,90.6133,VALID,-0.0339617,VALID,21.0848,VALID,138,VALID,1.5024,
2003-02-11, 00:43:00,VALID,916.659,VALID,0,VALID,90.6374,VALID,-0.0509425,VALID,21.0848,VALID,152,VALID,1.4166,
2003-02-11, 00:44:00,VALID,916.654,VALID,0,VALID,90.612,VALID,-0.0169808,VALID,21.1018,VALID,144,VALID,1.08633,
2003-02-11, 00:45:00,VALID,916.659,VALID,0,VALID,90.6527,VALID,-0.0169808,VALID,21.0819,VALID,135,VALID,0.620988,
2003-02-11, 00:46:00,VALID,916.648,VALID,0,VALID,90.7697,VALID,-0.0509425,VALID,21.0749,VALID,152,VALID,1.03187,
2003-02-11, 00:47:00,VALID,916.651,VALID,0,VALID,90.879,VALID,-0.0339617,VALID,21.0555,VALID,107,VALID,0.788857,
2003-02-11, 00:48:00,VALID,916.666,VALID,0,VALID,90.9312,VALID,-0.0169808,VALID,21.0261,VALID,143,VALID,0.879911,
2003-02-11, 00:49:00,VALID,916.658,VALID,0,VALID,91.0189,VALID,0,VALID,21.0062,VALID,129,VALID,0.436699,
2003-02-11, 00:50:00,VALID,916.678,VALID,0,VALID,91.1435,VALID,-0.0169808,VALID,20.9905,VALID,132,VALID,0.250206,
2003-02-11, 00:51:00,VALID,916.679,VALID,0,VALID,91.2376,VALID,-0.0169808,VALID,20.9652,VALID,136,VALID,0.851563,
2003-02-11, 00:52:00,VALID,916.688,VALID,0,VALID,91.3889,VALID,-0.0169808,VALID,20.9294,VALID,154,VALID,0.958404,
2003-02-11, 00:53:00,VALID,916.661,VALID,0,VALID,91.5059,VALID,-0.0339617,VALID,20.9137,VALID,143,VALID,0.905828,
2003-02-11, 00:54:00,VALID,916.646,VALID,0,VALID,91.5072,VALID,-0.0339617,VALID,20.9003,VALID,152,VALID,1.14844,
2003-02-11, 00:55:00,VALID,916.615,VALID,0,VALID,91.4436,VALID,-0.0169808,VALID,20.8935,VALID,148,VALID,0.855903,
2003-02-11, 00:56:00,VALID,916.605,VALID,0,VALID,91.4284,VALID,0,VALID,20.8933,VALID,156,VALID,0.894231,
2003-02-11, 00:57:00,VALID,916.578,VALID,0,VALID,91.4271,VALID,-0.0169808,VALID,20.9005,VALID,149,VALID,0.730363,
2003-02-11, 00:58:00,VALID,916.588,VALID,0,VALID,91.4246,VALID,-0.0169808,VALID,20.8838,VALID,147,VALID,0.341992,
2003-02-11, 00:59:00,VALID,916.603,VALID,0,VALID,91.4741,VALID,-0.0169808,VALID,20.8709,VALID,140,VALID,0.75739,
2003-02-11, 01:00:00,VALID,916.62,VALID,0,VALID,91.5746,VALID,-0.0169808,VALID,20.8483,VALID,145,VALID,0.767064,
2003-02-11, 01:01:00,VALID,916.613,VALID,0,VALID,91.6751,VALID,-0.0339617,VALID,20.8262,VALID,135,VALID,0.592105,
2003-02-11, 01:02:00,VALID,916.604,VALID,0,VALID,91.7806,VALID,0,VALID,20.7906,VALID,145,VALID,0.785714,
2003-02-11, 01:03:00,VALID,916.586,VALID,0,VALID,91.9993,VALID,0,VALID,20.7677,VALID,150,VALID,0.905849,
2003-02-11, 01:04:00,VALID,916.564,VALID,0,VALID,92.1392,VALID,-0.0169808,VALID,20.7518,VALID,146,VALID,1.13096,
2003-02-11, 01:05:00,VALID,916.533,VALID,0,VALID,92.2257,VALID,-0.0509425,VALID,20.7127,VALID,147,VALID,1.06543,
2003-02-11, 01:06:00,VALID,916.519,VALID,0,VALID,92.335,VALID,-0.0169808,VALID,20.6931,VALID,148,VALID,1.15773,
2003-02-11, 01:07:00,VALID,916.492,VALID,0,VALID,92.6237,VALID,0,VALID,20.671,VALID,152,VALID,1.69046,
2003-02-11, 01:08:00,VALID,916.489,VALID,0,VALID,92.7356,VALID,-0.0169808,VALID,20.6551,VALID,157,VALID,1.24013,
2003-02-11, 01:09:00,VALID,916.484,VALID,0,VALID,92.7254,VALID,-0.0169808,VALID,20.6553,VALID,142,VALID,0.864149,
2003-02-11, 01:10:00,VALID,916.457,VALID,0,VALID,92.6758,VALID,-0.0169808,VALID,20.6222,VALID,145,VALID,0.919471,
2003-02-11, 01:11:00,VALID,916.461,VALID,0,VALID,92.7839,VALID,0,VALID,20.5999,VALID,141,VALID,0.753801,
2003-02-11, 01:12:00,VALID,916.437,VALID,0,VALID,92.9289,VALID,0,VALID,20.5576,VALID,142,VALID,0.737891,
2003-02-11, 01:13:00,VALID,916.431,VALID,0,VALID,92.9772,VALID,-0.0169808,VALID,20.5449,VALID,135,VALID,0.642525,
2003-02-11, 01:14:00,VALID,916.412,VALID,0,VALID,93.0408,VALID,-0.0339617,VALID,20.5223,VALID,133,VALID,0.664679,
2003-02-11, 01:15:00,VALID,916.382,VALID,0,VALID,93.1209,VALID,-0.0339617,VALID,20.5093,VALID,130,VALID,0.804893,
2003-02-11, 01:16:00,VALID,916.381,VALID,0,VALID,93.2468,VALID,-0.0339617,VALID,20.5096,VALID,140,VALID,0.885491,
2003-02-11, 01:17:00,VALID,916.345,VALID,0,VALID,93.2213,VALID,-0.0169808,VALID,20.5096,VALID,136,VALID,1.07512,
2003-02-11, 01:18:00,VALID,916.329,VALID,0,VALID,93.1641,VALID,-0.0169808,VALID,20.5064,VALID,141,VALID,1.28022,
2003-02-11, 01:19:00,VALID,916.325,VALID,0,VALID,93.0052,VALID,-0.0339617,VALID,20.5287,VALID,133,VALID,1.10117,
2003-02-11, 01:20:00,VALID,916.322,VALID,0,VALID,92.7089,VALID,-0.0509425,VALID,20.5543,VALID,140,VALID,1.26943,
2003-02-11, 01:21:00,VALID,916.312,VALID,0,VALID,92.4546,VALID,0.0169808,VALID,20.6098,VALID,139,VALID,0.894426,
2003-02-11, 01:22:00,VALID,916.331,VALID,0,VALID,92.2651,VALID,-0.0339617,VALID,20.6392,VALID,148,VALID,0.936883,
2003-02-11, 01:23:00,VALID,916.325,VALID,0,VALID,92.0515,VALID,-0.0509425,VALID,20.6588,VALID,149,VALID,1.04058,
2003-02-11, 01:24:00,VALID,916.321,VALID,0,VALID,91.7819,VALID,-0.0849042,VALID,20.6812,VALID,138,VALID,0.913061,
2003-02-11, 01:25:00,VALID,916.325,VALID,0,VALID,91.4398,VALID,-0.0169808,VALID,20.7038,VALID,140,VALID,1.0568,
2003-02-11, 01:26:00,VALID,916.3,VALID,0,VALID,91.1219,VALID,-0.0169808,VALID,20.7426,VALID,146,VALID,0.908398,
2003-02-11, 01:27:00,VALID,916.324,VALID,0,VALID,90.8574,VALID,-0.0509425,VALID,20.7717,VALID,152,VALID,1.00169,
2003-02-11, 01:28:00,VALID,916.298,VALID,0,VALID,90.6374,VALID,-0.0339617,VALID,20.7976,VALID,127,VALID,0.806127,
2003-02-11, 01:29:00,VALID,916.272,VALID,0,VALID,90.4785,VALID,0,VALID,20.8332,VALID,136,VALID,0.743627,
2003-02-11, 01:30:00,VALID,916.264,VALID,0,VALID,90.4149,VALID,0,VALID,20.8324,VALID,141,VALID,0.794643,
2003-02-11, 01:31:00,VALID,916.276,VALID,0,VALID,90.4162,VALID,0,VALID,20.8458,VALID,132,VALID,0.937099,
2003-02-11, 01:32:00,VALID,916.271,VALID,0,VALID,90.5014,VALID,-0.0169808,VALID,20.8299,VALID,139,VALID,1.15214,
2003-02-11, 01:33:00,VALID,916.274,VALID,0,VALID,90.5624,VALID,0,VALID,20.8097,VALID,133,VALID,0.683594,
2003-02-11, 01:34:00,VALID,916.271,VALID,0,VALID,90.7137,VALID,-0.0169808,VALID,20.7941,VALID,118,VALID,0.817779,
2003-02-11, 01:35:00,VALID,916.279,VALID,0,VALID,90.7671,VALID,-0.0339617,VALID,20.7914,VALID,104,VALID,0.678632,
2003-02-11, 01:36:00,VALID,916.257,VALID,0,VALID,90.7137,VALID,0,VALID,20.7785,VALID,116,VALID,1.21978,
2003-02-11, 01:37:00,VALID,916.266,VALID,0,VALID,90.551,VALID,-0.0339617,VALID,20.7946,VALID,107,VALID,1.00998,
2003-02-11, 01:38:00,VALID,916.273,VALID,0,VALID,90.4976,VALID,0,VALID,20.814,VALID,123,VALID,0.910857,
2003-02-11, 01:39:00,VALID,916.25,VALID,0,VALID,90.4772,VALID,-0.0169808,VALID,20.8068,VALID,114,VALID,1.20566,
2003-02-11, 01:40:00,VALID,916.246,VALID,0,VALID,90.3246,VALID,-0.0339617,VALID,20.817,VALID,112,VALID,1.36758,
2003-02-11, 01:41:00,VALID,916.24,VALID,0,VALID,90.1784,VALID,-0.0169808,VALID,20.8361,VALID,105,VALID,1.03822,
2003-02-11, 01:42:00,VALID,916.196,VALID,0,VALID,90.0182,VALID,-0.0339617,VALID,20.8685,VALID,74,VALID,1.05613,
2003-02-11, 01:43:00,VALID,916.189,VALID,0,VALID,89.83,VALID,0,VALID,20.8976,VALID,109,VALID,1.43195,
2003-02-11, 01:44:00,VALID,916.181,VALID,0,VALID,89.7969,VALID,-0.0339617,VALID,20.9073,VALID,81,VALID,1.20045,
2003-02-11, 01:45:00,VALID,916.17,VALID,0,VALID,89.7079,VALID,0,VALID,20.9232,VALID,90,VALID,0.979167,
2003-02-11, 01:46:00,VALID,916.159,VALID,0,VALID,89.6558,VALID,-0.0339617,VALID,20.9393,VALID,111,VALID,1.08285,
2003-02-11, 01:47:00,VALID,916.151,VALID,0,VALID,89.5769,VALID,-0.0169808,VALID,20.9329,VALID,122,VALID,1.56523,
2003-02-11, 01:48:00,VALID,916.11,VALID,0,VALID,89.5171,VALID,-0.0169808,VALID,20.9458,VALID,118,VALID,1.26351,
2003-02-11, 01:49:00,VALID,916.106,VALID,0,VALID,89.4587,VALID,-0.0339617,VALID,20.9628,VALID,128,VALID,1.22424,
2003-02-11, 01:50:00,VALID,916.109,VALID,0,VALID,89.3188,VALID,0.0169808,VALID,20.9644,VALID,112,VALID,1.42249,
2003-02-11, 01:51:00,VALID,916.117,VALID,0,VALID,89.1929,VALID,0.0339617,VALID,21,VALID,98,VALID,1.17795,
2003-02-11, 01:52:00,VALID,916.097,VALID,0,VALID,89.259,VALID,0.0169808,VALID,21.0129,VALID,108,VALID,1.23698,
2003-02-11, 01:53:00,VALID,916.092,VALID,0,VALID,89.1942,VALID,0.0169808,VALID,21.0121,VALID,120,VALID,1.23902,
2003-02-11, 01:54:00,VALID,916.091,VALID,0,VALID,89.3315,VALID,0.0339617,VALID,21.0423,VALID,113,VALID,1.5207,
2003-02-11, 01:55:00,VALID,916.089,VALID,0,VALID,89.4192,VALID,0,VALID,21.0415,VALID,94,VALID,0.826647,
2003-02-11, 01:56:00,VALID,916.073,VALID,0,VALID,89.5604,VALID,0.0339617,VALID,21.0417,VALID,118,VALID,1.4227,
2003-02-11, 01:57:00,VALID,916.047,VALID,0,VALID,89.643,VALID,0.0679233,VALID,21.035,VALID,114,VALID,1.58285,
2003-02-11, 01:58:00,VALID,916.032,VALID,0,VALID,89.7588,VALID,0.0339617,VALID,21.0188,VALID,94,VALID,1.42232,
2003-02-11, 01:59:00,VALID,916.004,VALID,0,VALID,89.7282,VALID,0.0169808,VALID,21.039,VALID,115,VALID,1.33774,
2003-02-11, 02:00:00,VALID,915.96,VALID,0,VALID,89.4663,VALID,0.0169808,VALID,21.0487,VALID,122,VALID,1.41036,
2003-02-11, 02:01:00,VALID,915.91,VALID,0,VALID,89.3328,VALID,0.0509425,VALID,21.0773,VALID,102,VALID,1.03418,
2003-02-11, 02:02:00,VALID,915.901,VALID,0,VALID,89.1967,VALID,0.0339617,VALID,21.1099,VALID,111,VALID,1.50612,
2003-02-11, 02:03:00,VALID,915.844,VALID,0,VALID,88.936,VALID,0.0169808,VALID,21.1293,VALID,97,VALID,1.00274,
2003-02-11, 02:04:00,VALID,915.818,VALID,0,VALID,88.9373,VALID,0.0169808,VALID,21.1455,VALID,117,VALID,1.12212,
2003-02-11, 02:05:00,VALID,915.795,VALID,0,VALID,88.8368,VALID,0,VALID,21.1622,VALID,70,VALID,1.43497,
2003-02-11, 02:06:00,VALID,915.795,VALID,0,VALID,88.8152,VALID,0.0169808,VALID,21.1619,VALID,69,VALID,1.45112,
2003-02-11, 02:07:00,VALID,915.78,VALID,0,VALID,88.819,VALID,0.0339617,VALID,21.1584,VALID,125,VALID,1.46812,
2003-02-11, 02:08:00,VALID,915.754,VALID,0,VALID,88.7542,VALID,0.0169808,VALID,21.1649,VALID,119,VALID,1.66738,
2003-02-11, 02:09:00,VALID,915.758,VALID,0,VALID,88.5609,VALID,0.0169808,VALID,21.1878,VALID,96,VALID,1.46643,
2003-02-11, 02:10:00,VALID,915.735,VALID,0,VALID,88.5228,VALID,0.0339617,VALID,21.2101,VALID,97,VALID,1.17188,
2003-02-11, 02:11:00,VALID,915.724,VALID,0,VALID,88.5723,VALID,0.0509425,VALID,21.2101,VALID,87,VALID,1.46978,
2003-02-11, 02:12:00,VALID,915.7,VALID,0,VALID,88.702,VALID,0.0169808,VALID,21.1897,VALID,84,VALID,0.827455,
2003-02-11, 02:13:00,VALID,915.679,VALID,0,VALID,88.8254,VALID,0,VALID,21.184,VALID,97,VALID,1.09876,
2003-02-11, 02:14:00,VALID,915.642,VALID,0,VALID,88.9958,VALID,0,VALID,21.1584,VALID,101,VALID,0.733553,
2003-02-11, 02:15:00,VALID,915.625,VALID,0,VALID,88.978,VALID,0,VALID,21.129,VALID,86,VALID,1.33535,
2003-02-11, 02:16:00,VALID,915.603,VALID,0,VALID,88.9602,VALID,0.0339617,VALID,21.1288,VALID,58,VALID,0.972551,
2003-02-11, 02:17:00,VALID,915.573,VALID,0,VALID,89.0365,VALID,0.0339617,VALID,21.1059,VALID,92,VALID,1.04835,
2003-02-11, 02:18:00,VALID,915.528,VALID,0,VALID,89.0721,VALID,0.0339617,VALID,21.1026,VALID,102,VALID,1.00206,
2003-02-11, 02:19:00,VALID,915.52,VALID,0,VALID,89.0161,VALID,0.0339617,VALID,21.1056,VALID,122,VALID,0.975694,
2003-02-11, 02:20:00,VALID,915.508,VALID,0,VALID,88.9246,VALID,0.0169808,VALID,21.1102,VALID,108,VALID,0.78105,
2003-02-11, 02:21:00,VALID,915.492,VALID,0,VALID,88.6817,VALID,-0.0509425,VALID,21.1336,VALID,113,VALID,1.44658,
2003-02-11, 02:22:00,VALID,915.486,VALID,0,VALID,88.552,VALID,-0.0339617,VALID,21.156,VALID,103,VALID,1.50508,
2003-02-11, 02:23:00,VALID,915.51,VALID,0,VALID,88.4528,VALID,-0.0679233,VALID,21.1818,VALID,103,VALID,1.21875,
2003-02-11, 02:24:01,VALID,915.527,VALID,0,VALID,88.4706,VALID,-0.0509425,VALID,21.2047,VALID,77,VALID,0.857525,
2003-02-11, 02:25:00,VALID,915.504,VALID,0,VALID,88.5164,VALID,-0.0679233,VALID,21.1945,VALID,96,VALID,0.803454,
2003-02-11, 02:26:00,VALID,915.497,VALID,0,VALID,88.5355,VALID,-0.0339617,VALID,21.1848,VALID,99,VALID,1.05603,
2003-02-11, 02:27:00,VALID,915.492,VALID,0,VALID,88.6664,VALID,-0.0849042,VALID,21.1883,VALID,83,VALID,0.904046,
2003-02-11, 02:28:00,VALID,915.469,VALID,0,VALID,88.7211,VALID,-0.0679233,VALID,21.1657,VALID,86,VALID,1.26439,
2003-02-11, 02:29:01,VALID,915.474,VALID,0,VALID,88.8763,VALID,-0.0679233,VALID,21.1533,VALID,87,VALID,0.877344,
2003-02-11, 02:30:00,VALID,915.452,VALID,0,VALID,89.0238,VALID,-0.0679233,VALID,21.1277,VALID,108,VALID,1.19151,
2003-02-11, 02:31:01,VALID,915.422,VALID,0,VALID,89.0683,VALID,-0.101885,VALID,21.1072,VALID,112,VALID,0.953547,
2003-02-11, 02:32:00,VALID,915.413,VALID,0,VALID,89.1433,VALID,-0.0849042,VALID,21.1215,VALID,92,VALID,0.940584,
2003-02-11, 02:33:00,VALID,915.412,VALID,0,VALID,89.1255,VALID,-0.0849042,VALID,21.1015,VALID,99,VALID,1.40538,
2003-02-11, 02:34:00,VALID,915.385,VALID,0,VALID,88.8267,VALID,-0.0679233,VALID,21.111,VALID,107,VALID,1.19091,
2003-02-11, 02:35:01,VALID,915.407,VALID,0,VALID,88.7427,VALID,-0.0679233,VALID,21.1465,VALID,79,VALID,0.929476,
2003-02-11, 02:36:00,VALID,915.376,VALID,0,VALID,88.7555,VALID,-0.101885,VALID,21.1595,VALID,102,VALID,0.918945,
2003-02-11, 02:37:00,VALID,915.378,VALID,0,VALID,88.8152,VALID,-0.0849042,VALID,21.1495,VALID,114,VALID,0.999155,
2003-02-11, 02:38:00,VALID,915.366,VALID,0,VALID,88.8534,VALID,-0.101885,VALID,21.1406,VALID,93,VALID,0.813117,
2003-02-11, 02:39:00,VALID,915.345,VALID,0,VALID,88.8216,VALID,-0.0679233,VALID,21.1301,VALID,105,VALID,0.837171,
2003-02-11, 02:40:00,VALID,915.361,VALID,0,VALID,88.8521,VALID,-0.101885,VALID,21.1436,VALID,75,VALID,0.834598,
2003-02-11, 02:41:00,VALID,915.369,VALID,0,VALID,88.8267,VALID,-0.0849042,VALID,21.1398,VALID,149,VALID,0.69371,
2003-02-11, 02:42:00,VALID,915.341,VALID,0,VALID,88.7783,VALID,-0.0849042,VALID,21.1336,VALID,122,VALID,0.755345,
2003-02-11, 02:43:00,VALID,915.352,VALID,0,VALID,88.7478,VALID,-0.0849042,VALID,21.1471,VALID,141,VALID,0.840039,
2003-02-11, 02:44:00,VALID,915.324,VALID,0,VALID,88.7071,VALID,-0.0679233,VALID,21.1269,VALID,144,VALID,0.763091,
2003-02-11, 02:45:01,VALID,915.323,VALID,0,VALID,88.847,VALID,-0.0679233,VALID,21.1398,VALID,106,VALID,0.48712,
2003-02-11, 02:46:00,VALID,915.343,VALID,0,VALID,88.8839,VALID,-0.0849042,VALID,21.1075,VALID,133,VALID,0.637336,
2003-02-11, 02:47:01,VALID,915.343,VALID,0,VALID,88.992,VALID,-0.0849042,VALID,21.1045,VALID,139,VALID,0.677083,
2003-02-11, 02:48:00,VALID,915.345,VALID,0,VALID,89.0428,VALID,-0.0849042,VALID,21.0781,VALID,159,VALID,0.513021,
2003-02-11, 02:49:01,VALID,915.341,VALID,0,VALID,89.2399,VALID,-0.0849042,VALID,21.0619,VALID,170,VALID,0.0707348,
2003-02-11, 02:50:01,VALID,915.321,VALID,0,VALID,89.4485,VALID,0.0169808,VALID,21.0382,VALID,170,VALID,0.00976563,
2003-02-11, 02:51:00,VALID,915.306,VALID,0,VALID,89.6964,VALID,0.0509425,VALID,21.0151,VALID,144,VALID,0.299409,
2003-02-11, 02:52:01,VALID,915.292,VALID,0,VALID,89.8694,VALID,0.0849042,VALID,20.9857,VALID,148,VALID,0.6544,
2003-02-11, 02:53:00,VALID,915.292,VALID,0,VALID,90.2038,VALID,0.101885,VALID,20.9378,VALID,161,VALID,0.762336,
2003-02-11, 02:54:00,VALID,915.271,VALID,0,VALID,90.5548,VALID,0.0849042,VALID,20.8863,VALID,153,VALID,0.614955,
2003-02-11, 02:55:00,VALID,915.255,VALID,0,VALID,90.8892,VALID,0.0509425,VALID,20.844,VALID,122,VALID,0.540264,
2003-02-11, 02:56:00,VALID,915.242,VALID,0,VALID,91.2656,VALID,0.101885,VALID,20.7785,VALID,131,VALID,0.570313,
2003-02-11, 02:57:01,VALID,915.243,VALID,0,VALID,91.6852,VALID,0.0679233,VALID,20.7341,VALID,137,VALID,0.75,
2003-02-11, 02:58:00,VALID,915.229,VALID,0,VALID,91.998,VALID,0.101885,VALID,20.6883,VALID,126,VALID,0.551943,
2003-02-11, 02:59:01,VALID,915.233,VALID,0,VALID,92.3566,VALID,0.0849042,VALID,20.653,VALID,132,VALID,0.695524,
2003-02-11, 03:00:00,VALID,915.223,VALID,0,VALID,92.616,VALID,0.101885,VALID,20.6274,VALID,131,VALID,0.545436,
2003-02-11, 03:01:01,VALID,915.217,VALID,0,VALID,92.9111,VALID,0.101885,VALID,20.5848,VALID,129,VALID,0.624566,
2003-02-11, 03:02:00,VALID,915.214,VALID,0,VALID,93.1018,VALID,0.0679233,VALID,20.5555,VALID,142,VALID,0.234375,
2003-02-11, 03:03:01,VALID,915.21,VALID,0,VALID,93.1832,VALID,0.0679233,VALID,20.5463,VALID,125,VALID,0.380701,
2003-02-11, 03:04:01,VALID,915.22,VALID,0,VALID,93.2824,VALID,0.0849042,VALID,20.5239,VALID,142,VALID,0.372656,
2003-02-11, 03:05:00,VALID,915.225,VALID,0,VALID,93.3447,VALID,0.0339617,VALID,20.5018,VALID,151,VALID,0.035473,
2003-02-11, 03:06:01,VALID,915.208,VALID,0,VALID,93.4426,VALID,0,VALID,20.4932,VALID,142,VALID,0.275493,
2003-02-11, 03:07:00,VALID,915.202,VALID,0,VALID,93.5062,VALID,0,VALID,20.4767,VALID,142,VALID,0,
2003-02-11, 03:08:00,VALID,915.197,VALID,0,VALID,93.5609,VALID,-0.0509425,VALID,20.4703,VALID,141,VALID,0.0466518,
2003-02-11, 03:09:00,VALID,915.159,VALID,0,VALID,93.538,VALID,-0.0339617,VALID,20.4517,VALID,141,VALID,0,
2003-02-11, 03:10:00,VALID,915.173,VALID,0,VALID,93.5837,VALID,-0.0169808,VALID,20.435,VALID,141,VALID,0.0195313,
2003-02-11, 03:11:01,VALID,915.152,VALID,0,VALID,93.6003,VALID,-0.0679233,VALID,20.4091,VALID,141,VALID,0.0140625,
2003-02-11, 03:12:00,VALID,915.173,VALID,0,VALID,93.6041,VALID,0,VALID,20.3765,VALID,141,VALID,0,
2003-02-11, 03:13:01,VALID,915.182,VALID,0,VALID,93.6715,VALID,0,VALID,20.3407,VALID,141,VALID,0,
2003-02-11, 03:14:00,VALID,915.151,VALID,0,VALID,93.8126,VALID,-0.0169808,VALID,20.3186,VALID,141,VALID,0.0542763,
2003-02-11, 03:15:01,VALID,915.147,VALID,0,VALID,93.9016,VALID,-0.0339617,VALID,20.2927,VALID,116,VALID,0.281684,
2003-02-11, 03:16:00,VALID,915.168,VALID,0,VALID,94.0072,VALID,-0.0339617,VALID,20.2698,VALID,61,VALID,0.309295,
2003-02-11, 03:17:01,VALID,915.136,VALID,0,VALID,94.3225,VALID,-0.0339617,VALID,20.2604,VALID,83,VALID,0.353674,
2003-02-11, 03:18:01,VALID,915.156,VALID,0,VALID,94.2844,VALID,-0.0339617,VALID,20.2351,VALID,76,VALID,0.52793,
2003-02-11, 03:19:01,VALID,915.17,VALID,0,VALID,94.7066,VALID,-0.0679233,VALID,20.2351,VALID,125,VALID,0.602829,
2003-02-11, 03:20:01,VALID,915.168,VALID,0,VALID,94.9024,VALID,-0.0339617,VALID,20.2507,VALID,144,VALID,0.309211,
2003-02-11, 03:21:00,VALID,915.179,VALID,0,VALID,94.9342,VALID,-0.0339617,VALID,20.2572,VALID,161,VALID,0.429482,
2003-02-11, 03:22:00,VALID,915.142,VALID,0,VALID,94.9558,VALID,-0.0339617,VALID,20.2771,VALID,166,VALID,0.18192,
2003-02-11, 03:23:00,VALID,915.15,VALID,0,VALID,95.1097,VALID,-0.0509425,VALID,20.2803,VALID,133,VALID,0.703125,
2003-02-11, 03:24:00,VALID,915.137,VALID,0,VALID,95.1593,VALID,0,VALID,20.3029,VALID,162,VALID,0.452919,
2003-02-11, 03:25:01,VALID,915.162,VALID,0,VALID,95.0855,VALID,0,VALID,20.3159,VALID,147,VALID,0.776563,
2003-02-11, 03:26:00,VALID,915.151,VALID,0,VALID,95.1465,VALID,0,VALID,20.3223,VALID,153,VALID,1.5777,
2003-02-11, 03:27:01,VALID,915.156,VALID,0,VALID,95.1516,VALID,0,VALID,20.3188,VALID,152,VALID,0.932432,
2003-02-11, 03:28:00,VALID,915.19,VALID,0,VALID,95.0855,VALID,0,VALID,20.3248,VALID,157,VALID,1.12109,
2003-02-11, 03:29:01,VALID,915.168,VALID,0,VALID,94.9316,VALID,-0.0339617,VALID,20.3385,VALID,135,VALID,1.3151,
2003-02-11, 03:30:00,VALID,915.177,VALID,0,VALID,94.8223,VALID,-0.0169808,VALID,20.3188,VALID,106,VALID,0.670873,
2003-02-11, 03:31:01,VALID,915.172,VALID,0,VALID,94.8439,VALID,-0.0169808,VALID,20.3228,VALID,136,VALID,0.995988,
2003-02-11, 03:32:01,VALID,915.17,VALID,0,VALID,94.849,VALID,-0.0509425,VALID,20.3161,VALID,134,VALID,0.863672,
2003-02-11, 03:33:00,VALID,915.164,VALID,0,VALID,94.7511,VALID,-0.0509425,VALID,20.3191,VALID,147,VALID,0.728885,